User: anonymous   Login
Location: Bilbao
(43.2500°N, 2.9667°W)
Time: 09:56:22
(UTC+02:00)
Language:

ISS - Orbit

View from above orbital plane
View from above orbital plane
View from above satellite
View from above satellite

Ground track
Ground track

The orbit data is extracted from the following two-line orbital elements,

1 25544U 98067A   22223.07647719  .00055373  00000-0  96544-3 0  9996
2 25544  51.6432  64.6768 0005765 110.9051  31.5004 15.50161205353695
Epoch (UTC): 11 August 2022 01:50:07
Eccentricity: 0.0005765
inclination: 51.6432°
perigee height: 412 km
apogee height: 420 km
right ascension of ascending node: 64.6768°
argument of perigee: 110.9051°
revolutions per day: 15.50161205
mean anomaly at epoch: 31.5004°
orbit number at epoch: 35369

The dashed part of the orbit path shows where the satellite is in the earth's shadow,  

DLR